[[{"header":{"parameterUnit":"m.s-1","parameterCategory":1,"la1":30.2991,"la2":30.254,"lo1":-89.0895,"lo2":-89.0444,"dy":0.0017,"dx":0.0017,"nx":28,"ny":28,"refTime":"2024-12-14T03:00:00:Z","depth":0,"parameterNumber":2,"parameterNumberName":"U-component_of_WINDS"},"data":[0,0,0,0,0,0,0,0,0,0,0,0,0,0,0,0,0,0,0,0,0,0,0,0,0,0,0,0,0,0,0,0,0,0,0,0,0,0,0,0,0,0,0,0,0,0,0,0,0,0,0,0,0,0,0,0,0,0,-7.13,-7.13,0,-7.1364,-7.1365,-7.1365,-7.1203,-7.1198,-7.1193,-7.1188,-7.1255,-7.1261,-7.1268,0,0,0,0,0,0,0,0,0,0,0,0,0,-7.1037,-7.1043,-7.13,-7.13,-7.1301,-7.1364,-7.1365,-7.1366,-7.1204,-7.1198,-7.1192,-7.1186,-7.1253,-7.1261,-7.1268,0,0,0,0,0,0,0,0,0,0,0,0,0,-7.1132,-7.1045,-7.1299,-7.1228,-7.1222,-7.1364,-7.1365,-7.1366,-7.1206,-7.1198,-7.119,-7.1183,-7.125,-7.126,-7.1269,-7.1483,0,0,-7.1299,-7.1304,0,0,0,0,0,0,0,0,-7.1126,-7.1141,-7.1238,-7.1233,-7.1227,-7.1268,-7.1296,-7.1405,-7.1207,-7.1212,-7.1188,-7.1179,-7.1266,-7.1274,-7.1302,-7.1486,-7.1489,-7.13,-7.1306,-7.131,-7.1313,0,0,0,0,0,0,0,-7.112,-7.1138,-7.1325,-7.1239,-7.1233,-7.1193,-7.1198,-7.1316,-7.1281,-7.1211,-7.1199,-7.1209,-7.1261,-7.1293,-7.1303,-7.149,-7.13,-7.1309,-7.1315,-7.1318,-7.1851,-7.1859,0,0,0,0,0,0,-7.1123,-7.1133,-7.1323,-7.1327,-7.1157,-7.1204,-7.121,-7.1263,-7.1279,-7.1274,-7.1216,-7.1201,-7.128,-7.1292,-7.1305,-7.1555,-7.131,-7.1319,-7.1325,-7.1843,-7.1853,-7.1862,0,0,0,0,0,0,-7.1118,-7.1141,-7.132,-7.1227,-7.1247,-7.1217,-7.1277,-7.1268,-7.13,-7.1283,-7.1275,-7.1255,-7.1275,-7.1291,-7.144,-7.1555,-7.1324,-7.1333,-7.1833,-7.1846,-7.1858,-7.2058,0,0,0,0,0,0,-7.1111,-7.114,-7.1221,-7.123,-7.1252,-7.1455,-7.1285,-7.1275,-7.1317,-7.1299,-7.1318,-7.1314,-7.127,-7.1426,-7.1449,-7.1564,-7.134,-7.1823,-7.1839,-7.1854,-7.2041,-7.2076,-7.2106,0,0,0,0,0,-7.1102,-7.1275,-7.1226,-7.125,-7.1353,-7.1462,-7.1474,-7.1421,-7.1327,-7.1408,-7.1397,-7.1313,-7.1539,-7.1442,-7.1467,-7.1587,-7.1815,-7.1834,-7.1852,-7.2026,-7.2069,-7.2105,0,0,0,0,0,0,-7.128,-7.1275,-7.122,-7.1401,-7.1433,-7.1434,-7.1534,-7.1467,-7.1527,-7.1507,-7.1438,-7.1444,-7.1606,-7.1611,-7.1504,-7.1794,-7.1661,-7.1686,-7.1785,-7.1825,-7.1857,-7.1852,-7.1349,0,0,0,0,0,-7.1341,-7.143,-7.142,-7.1581,-7.16,-7.1565,-7.161,-7.1566,-7.1597,-7.1609,-7.1609,-7.1642,-7.172,-7.1773,-7.1844,-7.2041,-7.2043,-7.2136,-7.2168,-7.2195,-7.2217,-7.2321,-7.2362,-7.1923,-7.1923,-7.1923,0,0,-7.1466,-7.1474,-7.1535,-7.1617,-7.1636,-7.173,-7.1577,-7.1683,-7.1752,-7.1625,-7.1765,-7.1767,-7.1799,-7.1973,-7.205,-7.1983,-7.2338,-7.2219,-7.224,-7.2247,-7.2345,-7.2386,-7.2423,-7.1936,-7.1934,-7.1932,0,0,-7.1742,-7.1758,-7.1893,-7.1916,-7.1948,-7.1923,-7.1956,-7.1968,-7.1964,-7.2103,-7.201,-7.2092,-7.2228,-7.2254,-7.2286,-7.2574,-7.2498,-7.2599,-7.2767,-7.287,-7.2904,-7.2935,-7.3037,-7.3074,-7.2621,-7.2621,-7.2621,0,-7.1894,-7.2032,-7.1971,-7.2084,-7.2122,-7.2013,-7.2149,-7.2174,-7.2228,-7.2257,-7.2181,-7.235,-7.2364,-7.2542,-7.2613,-7.2642,-7.2677,-7.2596,-7.2904,-7.2934,-7.2962,-7.3058,-7.3097,-7.2633,-7.2632,-7.263,-7.2629,0,-7.2217,-7.2314,-7.2419,-7.2474,-7.2525,-7.2649,-7.2607,-7.2666,-7.2618,-7.2602,-7.2746,-7.2759,-7.283,-7.287,-7.2824,-7.3043,-7.3,-7.2916,-7.278,-7.3016,-7.3106,-7.3142,-7.265,-7.2646,-7.2642,-7.2639,0,0,-7.2606,-7.2626,-7.2666,-7.2689,-7.2716,-7.279,-7.2909,-7.2979,-7.3031,-7.3072,-7.317,-7.3288,-7.321,-7.3246,-7.3203,-7.3293,-7.352,-7.3197,-7.3197,-7.3256,-7.3761,-7.3823,-7.3867,-7.3471,-7.3477,-7.3483,-7.3758,0,-7.2879,-7.3083,-7.3032,-7.3235,-7.3323,-7.3221,-7.3325,-7.3353,-7.3342,-7.3415,-7.3402,-7.3487,-7.3378,-7.3399,-7.3484,-7.3474,-7.362,-7.3454,-7.3561,-7.3565,-7.3555,-7.3914,-7.398,-7.4239,-7.3793,-7.3798,-7.3803,0,-7.3223,-7.3277,-7.3489,-7.3502,-7.3537,-7.3631,-7.3691,-7.3763,-7.3793,-7.3779,-7.382,-7.3758,-7.3876,-7.3741,-7.3902,-7.379,-7.3831,-7.3833,-7.3842,-7.3849,-7.3698,-7.393,-7.4321,-7.4359,-7.3857,-7.3853,-7.3849,0,-7.3485,-7.3611,-7.3754,-7.3777,-7.3796,-7.3865,-7.3876,-7.3898,-7.3943,-7.3996,-7.4025,-7.4091,-7.4128,-7.418,-7.4138,-7.4044,-7.4307,-7.4168,-7.4298,-7.4299,-7.4357,-7.4353,-7.4758,-7.4385,-7.4385,-7.4384,-7.4383,0,-7.3794,-7.3927,-7.3872,-7.396,-7.4106,-7.4047,-7.4194,-7.4193,-7.4214,-7.43,-7.4216,-7.4298,-7.4238,-7.4316,-7.4284,-7.4422,-7.444,-7.4431,-7.4421,-7.4438,-7.4439,-7.4463,-7.4444,-7.4394,-7.4392,-7.439,-7.4388,0,-7.411,-7.4079,-7.4227,-7.4233,-7.4238,-7.4346,-7.435,-7.4432,-7.4415,-7.4525,-7.4547,-7.452,-7.4607,-7.4571,-7.4663,-7.4642,-7.4819,-7.4785,-7.4809,-7.48,-7.4931,-7.4919,-7.5365,-7.542,-7.5013,-7.5017,-7.502,0,-7.4309,-7.4409,-7.4426,-7.4477,-7.4494,-7.4578,-7.4624,-7.4571,-7.4622,-7.4664,-7.4741,-7.4821,-7.4881,-7.5025,-7.5014,-7.5084,-7.5051,-7.5202,-7.506,-7.5075,-7.5052,-7.5046,-7.5055,-7.523,-7.5235,-7.5239,-7.5242,0,-7.4664,-7.4644,-7.4713,-7.4778,-7.4835,-7.4884,-7.4925,-7.4972,-7.492,-7.4982,-7.507,-7.5117,-7.5211,-7.5291,-7.5353,-7.5364,-7.5296,-7.5287,-7.532,-7.5338,-7.5348,-7.5344,-7.4885,-7.5277,-7.5273,-7.5271,-7.5269,-7.5267,-7.4927,-7.5011,-7.5036,-7.5116,-7.5142,-7.5182,-7.5259,-7.5252,-7.5324,-7.5396,-7.536,-7.5463,-7.549,-7.5567,-7.5588,-7.5667,-7.5607,-7.5656,-7.5668,-7.5681,-7.5698,-7.5336,-7.5678,-7.5677,-7.5676,-7.5675,-7.5674,0,-7.5276,-7.5288,-7.5363,-7.5423,-7.5486,-7.5416,-7.5458,-7.5516,-7.5607,-7.5638,-7.57,-7.5801,-7.5879,-7.5875,-7.5946,-7.601,-7.598,-7.6031,-7.6025,-7.6028,-7.5747,-7.5711,-7.6054,-7.6054,-7.6054,-7.6054,-7.6053,-7.6053,-7.5466,-7.5605,-7.5588,-7.5738,-7.5748,-7.5848,-7.5878,-7.5915,-7.594,-7.6057,-7.6121,-7.6117,-7.6135,-7.6207,-7.6275,-7.6271,-7.6301,-7.6364,-7.6349,-7.6086,-7.6048,-7.6012,-7.5977,-7.6371,-7.6371,-7.6623,-7.6625,-7.6627]},{"header":{"parameterUnit":"m.s-1","parameterCategory":1,"la1":30.2991,"la2":30.254,"lo1":-89.0895,"lo2":-89.0444,"dy":0.0017,"dx":0.0017,"nx":28,"ny":28,"refTime":"2024-12-14T03:00:00:Z","depth":0,"parameterNumber":3,"parameterNumberName":"V-component_of_WINDS"},"data":[0,0,0,0,0,0,0,0,0,0,0,0,0,0,0,0,0,0,0,0,0,0,0,0,0,0,0,0,0,0,0,0,0,0,0,0,0,0,0,0,0,0,0,0,0,0,0,0,0,0,0,0,0,0,0,0,0,0,-0.7947,-0.7947,0,-0.7957,-0.7957,-0.7957,-0.7929,-0.7928,-0.7927,-0.7927,-0.7937,-0.7939,-0.794,0,0,0,0,0,0,0,0,0,0,0,0,0,-0.7903,-0.7904,-0.7947,-0.7947,-0.7947,-0.7957,-0.7957,-0.7957,-0.7929,-0.7928,-0.7927,-0.7926,-0.7937,-0.7938,-0.794,0,0,0,0,0,0,0,0,0,0,0,0,0,-0.7919,-0.7905,-0.7947,-0.7935,-0.7934,-0.7957,-0.7957,-0.7957,-0.7929,-0.7928,-0.7927,-0.7926,-0.7937,-0.7938,-0.794,-0.7976,0,0,-0.7945,-0.7946,0,0,0,0,0,0,0,0,-0.7918,-0.7921,-0.7936,-0.7935,-0.7934,-0.7941,-0.7946,-0.7964,-0.793,-0.7931,-0.7926,-0.7925,-0.794,-0.7941,-0.7946,-0.7977,-0.7977,-0.7945,-0.7946,-0.7947,-0.7947,0,0,0,0,0,0,0,-0.7917,-0.792,-0.7951,-0.7937,-0.7935,-0.7928,-0.7929,-0.7949,-0.7943,-0.7931,-0.7929,-0.793,-0.7939,-0.7944,-0.7946,-0.7978,-0.7945,-0.7947,-0.7948,-0.7948,-0.8037,-0.8039,0,0,0,0,0,0,-0.7918,-0.7919,-0.7951,-0.7951,-0.7923,-0.793,-0.7931,-0.794,-0.7942,-0.7941,-0.7931,-0.7929,-0.7942,-0.7944,-0.7946,-0.7988,-0.7947,-0.7948,-0.7949,-0.8036,-0.8038,-0.8039,0,0,0,0,0,0,-0.7917,-0.7921,-0.795,-0.7935,-0.7938,-0.7932,-0.7943,-0.7941,-0.7946,-0.7943,-0.7941,-0.7938,-0.7941,-0.7944,-0.7969,-0.7988,-0.7949,-0.7951,-0.8034,-0.8037,-0.8038,-0.8072,0,0,0,0,0,0,-0.7916,-0.7921,-0.7935,-0.7935,-0.7939,-0.7973,-0.7944,-0.7942,-0.7949,-0.7946,-0.7949,-0.7948,-0.794,-0.7966,-0.797,-0.7989,-0.7952,-0.8033,-0.8035,-0.8038,-0.8069,-0.8075,-0.808,0,0,0,0,0,-0.7914,-0.7944,-0.7935,-0.7939,-0.7956,-0.7974,-0.7976,-0.7967,-0.7951,-0.7964,-0.7962,-0.7948,-0.7985,-0.7969,-0.7973,-0.7993,-0.8031,-0.8035,-0.8038,-0.8067,-0.8074,-0.808,0,0,0,0,0,0,-0.7947,-0.7944,-0.7934,-0.7966,-0.797,-0.7969,-0.7987,-0.7975,-0.7984,-0.7981,-0.7969,-0.797,-0.7997,-0.7997,-0.798,-0.8028,-0.8005,-0.801,-0.8026,-0.8033,-0.8038,-0.8037,-0.7953,0,0,0,0,0,-0.7957,-0.7972,-0.7969,-0.7997,-0.8,-0.7993,-0.8,-0.7992,-0.7997,-0.7999,-0.7998,-0.8003,-0.8016,-0.8024,-0.8036,-0.8069,-0.8069,-0.8085,-0.809,-0.8094,-0.8098,-0.8114,-0.8121,-0.8049,-0.8049,-0.8049,0,0,-0.798,-0.798,-0.799,-0.8003,-0.8006,-0.8021,-0.7995,-0.8012,-0.8023,-0.8001,-0.8024,-0.8024,-0.8029,-0.8058,-0.807,-0.8059,-0.8118,-0.8098,-0.8102,-0.8103,-0.8118,-0.8125,-0.8131,-0.8051,-0.8051,-0.8051,0,0,-0.8028,-0.803,-0.8053,-0.8056,-0.806,-0.8055,-0.806,-0.8061,-0.806,-0.8082,-0.8066,-0.8079,-0.8101,-0.8105,-0.8109,-0.8157,-0.8144,-0.8162,-0.8189,-0.8205,-0.8211,-0.8216,-0.8232,-0.8238,-0.8165,-0.8165,-0.8165,0,-0.8056,-0.8077,-0.8066,-0.8084,-0.809,-0.807,-0.8092,-0.8096,-0.8104,-0.8108,-0.8095,-0.8122,-0.8124,-0.8152,-0.8164,-0.8169,-0.8174,-0.8161,-0.8211,-0.8216,-0.822,-0.8235,-0.8241,-0.8167,-0.8167,-0.8167,-0.8167,0,-0.811,-0.8126,-0.8143,-0.815,-0.8158,-0.8178,-0.817,-0.8179,-0.817,-0.8166,-0.8189,-0.819,-0.8201,-0.8207,-0.8199,-0.8234,-0.8227,-0.8213,-0.819,-0.8229,-0.8243,-0.8249,-0.817,-0.8169,-0.8169,-0.8168,0,0,-0.818,-0.8179,-0.8186,-0.8188,-0.819,-0.8202,-0.8221,-0.823,-0.8238,-0.8244,-0.8259,-0.8278,-0.8264,-0.8269,-0.8261,-0.8275,-0.8312,-0.8259,-0.8259,-0.8268,-0.8349,-0.8359,-0.8366,-0.8303,-0.8304,-0.8305,-0.8348,0,-0.8226,-0.8258,-0.8248,-0.828,-0.8293,-0.8274,-0.829,-0.8293,-0.829,-0.83,-0.8297,-0.831,-0.8292,-0.8294,-0.8308,-0.8304,-0.8327,-0.8301,-0.8316,-0.8317,-0.8315,-0.8373,-0.8384,-0.8425,-0.8354,-0.8354,-0.8355,0,-0.8285,-0.8292,-0.8325,-0.8323,-0.8329,-0.8343,-0.8351,-0.8361,-0.8364,-0.8361,-0.8366,-0.8355,-0.8372,-0.835,-0.8374,-0.8356,-0.8362,-0.8361,-0.8362,-0.8363,-0.8338,-0.8374,-0.8437,-0.8443,-0.8364,-0.8363,-0.8362,0,-0.8331,-0.8349,-0.837,-0.8373,-0.8372,-0.8382,-0.8383,-0.8384,-0.839,-0.8396,-0.84,-0.8409,-0.8414,-0.8421,-0.8412,-0.8397,-0.8437,-0.8414,-0.8434,-0.8434,-0.8443,-0.8442,-0.8507,-0.8448,-0.8448,-0.8448,-0.8448,0,-0.8383,-0.8404,-0.839,-0.8404,-0.8426,-0.8413,-0.8436,-0.8434,-0.8435,-0.8447,-0.8432,-0.8444,-0.8431,-0.8442,-0.8435,-0.8455,-0.8458,-0.8455,-0.8453,-0.8456,-0.8456,-0.8459,-0.8456,-0.8449,-0.8449,-0.8449,-0.8448,0,-0.8438,-0.843,-0.8452,-0.8449,-0.8448,-0.8465,-0.8462,-0.8474,-0.8469,-0.8484,-0.8487,-0.848,-0.8492,-0.8483,-0.8496,-0.8491,-0.8517,-0.8511,-0.8516,-0.8514,-0.8534,-0.8531,-0.8602,-0.861,-0.8547,-0.8547,-0.8548,0,-0.8472,-0.8487,-0.8485,-0.8491,-0.8492,-0.8504,-0.8509,-0.8497,-0.8504,-0.8507,-0.8519,-0.8529,-0.8536,-0.8555,-0.8551,-0.856,-0.8553,-0.8577,-0.8555,-0.8557,-0.8552,-0.8551,-0.8552,-0.8582,-0.8583,-0.8583,-0.8584,0,-0.8532,-0.8526,-0.8535,-0.8542,-0.8549,-0.8554,-0.8557,-0.8564,-0.8552,-0.856,-0.8571,-0.8577,-0.8588,-0.8598,-0.8605,-0.8605,-0.8592,-0.8591,-0.8596,-0.8599,-0.86,-0.8598,-0.8527,-0.8589,-0.8589,-0.8588,-0.8588,-0.8588,-0.8576,-0.8588,-0.8588,-0.8597,-0.8599,-0.8602,-0.8613,-0.8609,-0.8617,-0.8625,-0.8618,-0.8631,-0.8632,-0.864,-0.8641,-0.8651,-0.8641,-0.8649,-0.865,-0.8652,-0.8654,-0.8599,-0.8653,-0.8652,-0.8652,-0.8652,-0.8652,0,-0.8634,-0.8633,-0.8642,-0.8646,-0.8654,-0.8641,-0.8644,-0.8651,-0.8662,-0.8664,-0.8671,-0.8683,-0.8693,-0.8689,-0.8697,-0.8705,-0.8699,-0.8708,-0.8706,-0.8706,-0.8663,-0.8658,-0.8712,-0.8712,-0.8712,-0.8712,-0.8712,-0.8712,-0.8665,-0.8684,-0.8678,-0.8698,-0.8696,-0.8708,-0.8711,-0.8714,-0.8715,-0.8729,-0.8736,-0.8733,-0.8732,-0.874,-0.8748,-0.8746,-0.8749,-0.8759,-0.8756,-0.8716,-0.871,-0.8704,-0.8699,-0.876,-0.8761,-0.8798,-0.8798,-0.8798]}]]